Time,TemperatureF,DewpointF,PressureIn,WindDirection,WindDirectionDegrees,WindSpeedMPH,WindSpeedGustMPH,Humidity,HourlyPrecipIn,Conditions,Clouds,dailyrainin,SoftwareType,DateUTC
2015-08-30 00:03:00,63.7,32.0,29.59,East,82,0.0,0.0,18,0.00,,,-99.99,wx200d/1.3,2015-08-30 07:03:00,
2015-08-30 00:08:00,63.7,32.0,29.59,South,181,0.0,0.0,18,0.00,,,-99.99,wx200d/1.3,2015-08-30 07:08:00,
2015-08-30 00:13:00,63.7,32.0,29.59,ESE,111,0.0,0.0,18,0.00,,,-99.99,wx200d/1.3,2015-08-30 07:13:00,
2015-08-30 00:18:00,63.9,32.0,29.59,East,82,0.0,0.0,18,0.00,,,-99.99,wx200d/1.3,2015-08-30 07:18:00,
2015-08-30 00:23:00,63.9,32.0,29.59,SSW,194,0.0,0.0,18,0.00,,,-99.99,wx200d/1.3,2015-08-30 07:23:00,
2015-08-30 00:28:00,63.9,32.0,29.59,WNW,293,0.0,0.0,18,0.00,,,-99.99,wx200d/1.3,2015-08-30 07:28:00,
2015-08-30 00:33:00,63.9,32.0,29.59,NW,316,0.0,0.0,18,0.00,,,-99.99,wx200d/1.3,2015-08-30 07:33:00,
2015-08-30 00:38:00,63.9,32.0,29.59,NW,307,0.0,0.0,18,0.00,,,-99.99,wx200d/1.3,2015-08-30 07:38:00,
2015-08-30 00:43:00,63.9,32.0,29.59,NW,313,0.0,0.0,18,0.00,,,-99.99,wx200d/1.3,2015-08-30 07:43:00,
2015-08-30 00:48:00,63.9,32.0,29.59,SE,130,0.0,0.0,18,0.00,,,-99.99,wx200d/1.3,2015-08-30 07:48:00,
2015-08-30 00:53:00,63.5,32.0,29.59,NW,311,0.0,0.0,18,0.00,,,-99.99,wx200d/1.3,2015-08-30 07:53:00,
2015-08-30 00:58:00,63.5,32.0,29.59,SSE,148,0.0,0.0,18,0.00,,,-99.99,wx200d/1.3,2015-08-30 07:58:00,
2015-08-30 01:03:00,63.5,32.0,29.59,West,276,0.0,0.0,18,0.00,,,-99.99,wx200d/1.3,2015-08-30 08:03:00,
2015-08-30 01:08:00,63.3,32.0,29.59,NW,305,0.0,0.0,18,0.00,,,-99.99,wx200d/1.3,2015-08-30 08:08:00,
2015-08-30 01:13:00,63.1,32.0,29.59,SSW,211,0.0,0.0,18,0.00,,,-99.99,wx200d/1.3,2015-08-30 08:13:00,
2015-08-30 01:18:00,63.1,32.0,29.62,SE,143,0.0,0.0,18,0.00,,,-99.99,wx200d/1.3,2015-08-30 08:18:00,
2015-08-30 01:23:00,63.0,32.0,29.62,WNW,282,0.0,0.0,18,0.00,,,-99.99,wx200d/1.3,2015-08-30 08:23:00,
2015-08-30 01:28:00,63.0,32.0,29.62,ENE,74,0.0,0.0,18,0.00,,,-99.99,wx200d/1.3,2015-08-30 08:28:00,
2015-08-30 01:33:00,63.0,32.0,29.62,SSE,147,0.0,0.0,18,0.00,,,-99.99,wx200d/1.3,2015-08-30 08:33:00,
2015-08-30 01:38:00,63.0,32.0,29.62,ESE,113,0.0,0.0,18,0.00,,,-99.99,wx200d/1.3,2015-08-30 08:38:00,
2015-08-30 01:43:00,63.0,32.0,29.62,West,269,0.0,0.0,18,0.00,,,-99.99,wx200d/1.3,2015-08-30 08:43:00,
2015-08-30 01:48:00,63.0,32.0,29.62,East,84,0.0,0.0,18,0.00,,,-99.99,wx200d/1.3,2015-08-30 08:48:00,
2015-08-30 01:53:00,63.0,32.0,29.62,ENE,78,0.0,0.0,18,0.00,,,-99.99,wx200d/1.3,2015-08-30 08:53:00,
2015-08-30 01:58:00,62.8,32.0,29.62,East,100,0.0,0.0,18,0.00,,,-99.99,wx200d/1.3,2015-08-30 08:58:00,
2015-08-30 02:03:00,61.9,32.0,29.62,East,101,0.0,0.0,18,0.00,,,-99.99,wx200d/1.3,2015-08-30 09:03:00,
2015-08-30 02:08:00,61.0,32.0,29.62,East,79,0.0,0.0,19,0.00,,,-99.99,wx200d/1.3,2015-08-30 09:08:00,
2015-08-30 02:13:00,60.6,32.0,29.62,ENE,60,0.0,0.0,19,0.00,,,-99.99,wx200d/1.3,2015-08-30 09:13:00,
2015-08-30 02:18:00,60.3,32.0,29.62,East,88,0.0,0.0,19,0.00,,,-99.99,wx200d/1.3,2015-08-30 09:18:00,
2015-08-30 02:23:00,59.9,32.0,29.62,SE,143,0.0,0.0,19,0.00,,,-99.99,wx200d/1.3,2015-08-30 09:23:00,
2015-08-30 02:28:00,59.7,32.0,29.62,SE,132,0.0,0.0,19,0.00,,,-99.99,wx200d/1.3,2015-08-30 09:28:00,
2015-08-30 02:33:00,59.5,32.0,29.65,SSE,161,0.0,0.0,19,0.00,,,-99.99,wx200d/1.3,2015-08-30 09:33:00,
2015-08-30 02:38:00,59.4,32.0,29.65,SE,125,0.0,0.0,19,0.00,,,-99.99,wx200d/1.3,2015-08-30 09:38:00,
2015-08-30 02:43:00,59.2,32.0,29.65,ENE,60,0.0,0.0,19,0.00,,,-99.99,wx200d/1.3,2015-08-30 09:43:00,
2015-08-30 02:48:00,59.0,32.0,29.65,NW,323,0.0,0.0,22,0.00,,,-99.99,wx200d/1.3,2015-08-30 09:48:00,
2015-08-30 02:53:00,59.0,32.0,29.65,North,351,0.0,0.0,22,0.00,,,-99.99,wx200d/1.3,2015-08-30 09:53:00,
2015-08-30 02:58:00,59.0,32.0,29.65,NW,323,0.0,0.0,22,0.00,,,-99.99,wx200d/1.3,2015-08-30 09:58:00,
2015-08-30 03:03:00,58.8,32.0,29.65,SW,234,0.0,0.0,22,0.00,,,-99.99,wx200d/1.3,2015-08-30 10:03:00,
2015-08-30 03:08:00,58.8,32.0,29.65,North,351,0.0,0.0,22,0.00,,,-99.99,wx200d/1.3,2015-08-30 10:08:00,
2015-08-30 03:13:00,58.6,32.0,29.65,South,190,0.0,0.0,22,0.00,,,-99.99,wx200d/1.3,2015-08-30 10:13:00,
2015-08-30 03:18:00,58.6,32.0,29.65,WNW,286,0.0,0.0,24,0.00,,,-99.99,wx200d/1.3,2015-08-30 10:18:00,
2015-08-30 03:23:00,58.5,32.0,29.65,South,185,0.0,0.0,24,0.00,,,-99.99,wx200d/1.3,2015-08-30 10:23:00,
2015-08-30 03:28:00,58.5,32.0,29.65,SE,129,0.0,0.0,24,0.00,,,-99.99,wx200d/1.3,2015-08-30 10:28:00,
2015-08-30 03:33:00,58.5,32.0,29.65,ENE,64,0.0,0.0,24,0.00,,,-99.99,wx200d/1.3,2015-08-30 10:33:00,
2015-08-30 03:38:00,58.1,32.0,29.65,North,7,0.0,0.0,24,0.00,,,-99.99,wx200d/1.3,2015-08-30 10:38:00,
2015-08-30 03:43:00,58.1,32.0,29.65,NNE,16,0.0,0.0,24,0.00,,,-99.99,wx200d/1.3,2015-08-30 10:43:00,
2015-08-30 03:48:00,57.9,32.0,29.65,North,351,0.0,0.0,24,0.00,,,-99.99,wx200d/1.3,2015-08-30 10:48:00,
2015-08-30 03:53:00,57.7,32.0,29.65,North,351,0.0,0.0,24,0.00,,,-99.99,wx200d/1.3,2015-08-30 10:53:00,
2015-08-30 03:58:00,57.6,32.0,29.65,East,84,0.0,0.0,24,0.00,,,-99.99,wx200d/1.3,2015-08-30 10:58:00,
2015-08-30 04:03:00,57.6,32.0,29.65,North,351,0.0,0.0,24,0.00,,,-99.99,wx200d/1.3,2015-08-30 11:03:00,
2015-08-30 04:08:00,57.6,32.0,29.65,North,9,0.0,0.0,24,0.00,,,-99.99,wx200d/1.3,2015-08-30 11:08:00,
2015-08-30 04:13:00,57.4,32.0,29.65,SSE,155,0.0,0.0,24,0.00,,,-99.99,wx200d/1.3,2015-08-30 11:13:00,
2015-08-30 04:18:00,57.4,32.0,29.65,NNE,27,0.0,0.0,24,0.00,,,-99.99,wx200d/1.3,2015-08-30 11:18:00,
2015-08-30 04:23:00,57.2,32.0,29.65,SE,143,0.0,0.0,24,0.00,,,-99.99,wx200d/1.3,2015-08-30 11:23:00,
2015-08-30 04:28:00,57.2,32.0,29.65,North,356,0.0,0.0,24,0.00,,,-99.99,wx200d/1.3,2015-08-30 11:28:00,
2015-08-30 04:33:00,57.2,32.0,29.65,East,88,0.0,0.0,24,0.00,,,-99.99,wx200d/1.3,2015-08-30 11:33:00,
2015-08-30 04:38:00,57.2,32.0,29.65,East,100,0.0,0.0,24,0.00,,,-99.99,wx200d/1.3,2015-08-30 11:38:00,
2015-08-30 04:43:00,57.6,32.0,29.65,East,88,0.0,0.0,24,0.00,,,-99.99,wx200d/1.3,2015-08-30 11:43:00,
2015-08-30 04:48:00,57.6,32.0,29.65,West,280,0.0,0.0,24,0.00,,,-99.99,wx200d/1.3,2015-08-30 11:48:00,
2015-08-30 04:53:00,57.7,32.0,29.65,WSW,245,0.0,0.0,24,0.00,,,-99.99,wx200d/1.3,2015-08-30 11:53:00,
2015-08-30 04:58:00,57.7,32.0,29.65,NE,35,0.0,0.0,24,0.00,,,-99.99,wx200d/1.3,2015-08-30 11:58:00,
2015-08-30 05:03:00,57.9,32.0,29.68,SW,231,0.0,0.0,24,0.00,,,-99.99,wx200d/1.3,2015-08-30 12:03:00,
2015-08-30 05:08:00,57.9,32.0,29.68,North,351,0.0,0.0,24,0.00,,,-99.99,wx200d/1.3,2015-08-30 12:08:00,
2015-08-30 05:13:00,57.9,32.0,29.68,North,9,0.0,0.0,24,0.00,,,-99.99,wx200d/1.3,2015-08-30 12:13:00,
2015-08-30 05:18:00,57.9,32.0,29.65,West,270,0.0,0.0,24,0.00,,,-99.99,wx200d/1.3,2015-08-30 12:18:00,
2015-08-30 05:23:00,57.9,32.0,29.65,ESE,108,0.0,0.0,24,0.00,,,-99.99,wx200d/1.3,2015-08-30 12:23:00,